Terminal Aerodrome Forecast
Issued by NWS Boston, MA

Home | Current Version | Previous Version | Text Only | Print | Product List | Glossary On
Versions: 1 2 3 4 5 6 7 8 9 10 11 12 13 14 15 16 17 18 19 20 21 22 23 24 25 26 27 28 29 30 31 32 33 34 35 36 37 38 39 40 41 42 43 44 45 46
000
FTUS41 KBOX 292012 AAA
TAFBOS
TAF AMD
KBOS 292012Z 2920/3024 21008KT P6SM FEW050
     FM292030 14005KT P6SM FEW050
     FM292300 19005KT P6SM FEW050
     FM300600 23007KT P6SM OVC050=

USA.gov is the U.S. government's official web portal to all federal, state and local government web resources and services.